Regional Weather Roundup
Issued by NWS

Home | Current Version | Previous Version | Text Only | Print | Product List | Glossary On
Versions: 1 2 3 4 5 6 7 8 9 10 11 12 13 14 15 16 17 18 19 20 21 22 23 24 25 26 27 28 29 30 31 32 33 34 35 36 37 38 39 40 41 42 43 44 45 46 47 48 49 50
000
ASUS44 KLIX 010710
RWRLA
LOUISIANA WEATHER ROUNDUP
NATIONAL WEATHER SERVICE NEW ORLEANS LA
100 AM CST SUN FEB 01 2015

NOTE: "FAIR" INDICATES FEW OR NO CLOUDS BELOW 12,000 FEET WITH NO
      SIGNIFICANT WEATHER AND/OR OBSTRUCTIONS TO VISIBILITY.
      SKY/WX - SKY CONDITION AND SIGNIFICANT WEATHER.
      TMP - AIR TEMPERATURE.    DP   - DEWPOINT TEMPERATURE.
      RH  - RELATIVE HUMIDITY.  PRES - PRESSURE.
      HX  - HEAT INDEX.         WCI  - WIND CHILL INDEX.

*  THESE STATIONS ARE NOT NWS OR FAA STATIONS AND ARE NOT UNDER
   NWS QUALITY CONTROL.

LAZ040-048-061>063-065-066-069-010800-
SOUTHEAST LOUISIANA

CITY           SKY/WX    TMP DP  RH WIND       PRES   REMARKS
N.O. AUDUBON   NOT AVBL
N.O. INTL ARPT CLOUDY    60  51  72 SE9       30.09F
N.O. LAKEFRONT CLOUDY    60  52  74 E13       30.10F
N.O. DOWNTOWN* NOT AVBL
SLIDELL        MOCLDY    54  50  86 E6        30.10F
BATON ROUGE    MOCLDY    55  49  80 E10       30.07F
BOOTHVILLE     CLOUDY    58  53  84 SE7       30.11F
BELLE CHASSE   CLOUDY    59  52  77 E9        30.09F
BOGALUSA*        N/A     53  47  81 SE5       30.13F
GALLIANO*      CLOUDY    64  57  79 MISG      30.08F
NEW ROADS*     CLOUDY    55  49  82 E8        30.07F
GONZALES*      PTSUNNY   55  54  94 SE3       30.08F
HAMMOND*       CLOUDY    54  48  82 E5        30.10F
HOUMA*         CLOUDY    58  55  89 E5        30.08F
PORT FOURCHON* CLOUDY    66  59  77 SE13G20   30.10F

$$

LAZ041-044-053-054-010800-
SOUTHWEST LOUISIANA

CITY           SKY/WX    TMP DP  RH WIND       PRES   REMARKS
LAKE CHARLES   CLOUDY    58  53  84 SE16      30.01F
LAFAYETTE      LGT RAIN  58  52  80 VRB5      30.06F
PATTERSON      CLOUDY    61  54  77 E10       30.07F
SALT POINT       N/A     60  55  83 VRB6      30.04F
NEW IBERIA     LGT RAIN  57  53  86 SE10      30.06F
CHENAULT AIRPK CLOUDY    58  54  85 SE13G18   30.02F

$$

LAZ027-028-010800-
CENTRAL LOUISIANA

CITY           SKY/WX    TMP DP  RH WIND       PRES   REMARKS
FORT POLK      CLOUDY    54  52  92 SE7       30.00F
ALEXANDRIA INT CLOUDY    54  51  90 SE10      30.02F
ALEXANDRIA     LGT RAIN  55  50  83 SE7       30.04F

$$

LAZ001-002-010800-
NORTHWEST LOUISIANA

CITY           SKY/WX    TMP DP  RH WIND       PRES   REMARKS
SHREVEPORT     CLOUDY    57  47  69 S15G24    29.95F
BARKSDALE AFB  CLOUDY    55  46  71 S22G30    29.93F
DTN SHREVEPORT CLOUDY    55  45  68 S17G23    29.95F

$$

LAZ014-016-010800-
NORTHEAST LOUISIANA

CITY           SKY/WX    TMP DP  RH WIND       PRES   REMARKS
MONROE         LGT RAIN  52  45  77 S7        30.04F
TALLULAH       LGT RAIN  53  42  66 SE7       30.07F

$$



USA.gov is the U.S. government's official web portal to all federal, state and local government web resources and services.